Wind_Speed
6 6 5 6 7 7 7 6 5 4 5 5 5 6 6 6 8 9 10 10 10 11 11 11 11 12 12 13 13 11 10 10 9 8 8 7 6 5 4 4 3 3 3
5 5 5 4 6 7 7 6 6 5 5 6 6 6 6 7 8 8 9 11 11 11 11 11 11 13 12 13 12 11 10 10 9 9 8 7 7 6 5 4 3 3 2
5 5 4 4 6 7 7 7 6 6 6 6 5 6 6 6 7 8 9 11 11 11 12 13 12 12 11 11 10 10 10 9 9 8 7 7 7 6 5 4 3 2 1
7 6 5 6 7 7 8 7 6 6 6 6 5 5 6 6 7 9 10 10 10 10 11 11 11 11 11 11 10 10 9 8 8 7 6 6 6 5 4 3 2 2 1
8 7 8 8 8 8 7 7 7 6 6 7 6 6 7 7 7 9 10 10 11 11 11 11 11 11 11 10 9 9 8 7 7 6 6 5 5 5 4 3 2 2 1
9 9 9 8 8 8 8 8 8 8 7 7 7 7 8 7 8 9 10 11 11 11 11 11 11 11 11 10 9 8 8 8 7 6 5 5 4 4 3 2 2 1 0
10 9 9 8 9 8 8 8 8 8 8 8 8 9 10 10 10 10 10 11 11 11 10 11 11 11 10 9 8 8 7 7 6 6 5 4 3 3 3 2 1 1 0
9 9 9 9 9 8 8 7 8 9 9 9 9 9 10 10 10 10 10 10 11 11 11 11 10 10 9 8 7 7 6 6 5 5 5 4 3 3 2 2 1 0 1
9 9 10 10 9 9 9 8 9 10 10 9 10 9 10 10 10 10 10 10 11 11 10 10 9 9 8 8 7 6 6 5 4 4 4 3 3 3 2 1 1 1 2
8 9 10 9 9 9 9 9 9 9 10 9 9 9 9 9 9 10 10 11 10 10 10 9 9 8 7 6 6 5 5 4 2 3 2 2 3 2 1 1 1 2 2
9 9 10 10 9 9 10 10 10 10 9 9 10 10 10 9 10 10 10 10 10 9 9 8 8 7 5 5 5 4 3 2 2 2 1 1 3 3 2 2 1 2 2
9 10 10 10 9 9 9 9 9 10 10 10 10 10 10 10 10 10 10 10 9 8 8 7 6 6 5 4 3 2 2 2 2 2 2 2 2 3 3 3 3 3 3
10 9 9 9 9 9 9 9 9 10 10 10 10 9 9 9 8 9 10 9 8 7 7 6 5 4 4 3 2 2 2 1 2 2 2 2 2 3 4 4 4 4 4
10 10 9 9 9 9 8 7 8 9 9 9 10 9 9 9 8 8 9 9 8 7 6 5 4 4 3 3 2 2 1 1 2 2 2 3 3 4 5 5 4 5 5
10 9 9 9 9 9 8 7 7 8 8 9 9 9 8 8 8 7 8 8 7 6 5 5 4 3 2 2 2 1 2 2 3 3 2 3 4 4 5 5 5 6 6
10 9 9 9 9 8 8 8 8 7 8 8 8 8 7 7 7 7 7 6 6 6 5 4 4 3 3 2 2 2 3 3 3 3 3 4 4 4 5 5 6 6 6
10 9 9 9 8 8 8 8 8 7 7 7 8 7 7 7 7 6 6 6 6 5 5 4 3 2 2 2 2 2 3 3 3 4 4 4 4 5 5 5 6 7 7
10 9 9 9 9 8 8 8 7 7 7 7 7 7 6 6 6 5 5 5 5 4 4 3 3 2 2 2 2 3 3 3 3 4 5 5 5 5 6 6 7 7 7
10 9 9 9 8 8 8 7 7 7 7 6 6 6 6 5 5 4 5 5 4 4 4 3 3 2 2 3 3 3 4 4 4 4 5 6 6 7 7 7 8 8 8
9 9 9 9 8 8 8 7 7 7 7 6 6 5 5 5 4 4 4 4 4 3 3 3 2 3 3 4 4 4 5 5 5 5 6 7 8 8 8 8 8 8 9
8 8 8 9 8 8 7 7 7 7 6 6 5 4 5 4 3 3 2 2 2 3 2 2 3 3 3 4 4 4 4 5 6 6 7 8 9 9 9 9 9 9 9
8 7 8 8 8 8 7 7 7 6 6 5 5 4 3 3 3 2 2 2 2 1 1 2 3 3 4 3 4 4 5 5 5 6 7 8 9 9 9 10 10 10 10
7 7 7 8 7 7 7 6 6 5 5 4 4 3 3 3 2 2 2 3 2 1 1 2 3 3 3 4 4 4 5 5 6 6 7 9 10 10 11 11 11 11 11
5 5 6 6 6 6 6 6 5 4 4 3 3 3 2 2 2 1 2 1 1 1 1 2 3 4 4 4 5 5 6 6 7 7 9 10 11 11 11 12 12 10 10
4 4 4 4 5 5 5 5 5 4 3 3 2 2 2 1 0 1 1 1 2 1 1 2 3 5 5 6 7 7 8 8 8 9 9 11 12 12 12 12 12 11 10
3 3 3 3 3 4 3 3 3 4 4 3 3 2 2 1 2 2 2 2 2 3 3 3 4 6 6 7 8 9 9 10 10 11 11 11 12 12 13 13 13 12 12
Wind_Direction
48 58 57 69 78 91 97 102 102 98 99 102 102 103 104 101 102 106 110 118 123 125 126 132 133 134 136 137 136 137 139 137 139 132 132 137 140 139 132 124 118 118 127
54 58 61 75 84 89 95 93 97 102 101 103 107 107 105 112 113 112 113 117 120 125 128 127 130 131 133 133 132 129 133 135 137 124 123 127 130 124 119 116 110 109 105
54 73 95 101 96 92 95 96 95 99 102 103 112 113 109 113 119 118 123 122 120 118 124 126 129 132 131 129 129 125 127 133 130 128 124 124 125 119 113 110 114 106 113
58 79 104 114 107 99 100 97 100 101 106 110 116 117 115 113 116 119 125 124 118 117 121 121 122 125 127 124 122 118 121 130 126 125 126 120 126 128 126 126 120 107 108
66 84 103 110 110 100 98 94 97 99 105 110 115 116 114 118 125 126 123 119 115 116 120 122 122 122 124 123 121 116 115 124 126 123 126 123 127 128 128 130 129 116 108
73 88 96 103 104 98 97 93 94 94 95 99 106 112 110 117 129 128 122 115 115 117 119 120 120 121 120 118 115 115 113 116 119 117 119 123 121 124 126 125 125 121 211
83 87 90 100 104 101 97 95 93 94 95 98 100 104 105 106 118 120 117 116 118 119 117 119 120 119 118 117 115 116 117 118 116 111 110 117 117 115 117 102 89 75 119
82 86 90 96 100 97 94 96 99 100 95 98 104 105 107 110 112 116 118 116 117 118 118 120 120 118 116 114 116 120 123 121 117 108 103 108 106 104 104 88 68 75 77
79 88 92 96 94 93 92 98 100 101 96 98 102 105 108 109 116 116 121 120 118 118 117 119 119 118 115 113 113 120 124 119 116 104 102 95 88 83 77 58 58 77 45
77 86 92 97 94 90 89 95 96 100 98 99 102 104 108 109 114 115 119 117 118 119 117 116 117 119 120 116 113 115 119 113 94 88 92 79 63 61 51 32 35 23 2
78 85 91 92 91 88 90 90 91 94 97 100 100 104 108 114 118 119 121 116 120 120 118 116 120 120 118 116 113 102 100 95 76 73 65 53 42 38 29 5 357 342 326
85 84 90 92 93 91 89 91 90 91 94 99 102 103 105 112 114 114 125 118 119 119 119 120 121 117 114 119 112 88 68 70 74 53 26 15 31 30 17 357 338 332 328
89 88 91 96 100 95 91 92 92 93 93 91 94 97 98 103 106 110 119 122 121 121 119 119 119 115 112 115 101 78 51 44 24 1 352 343 6 357 346 343 335 334 330
84 84 87 94 97 96 91 91 93 93 91 89 90 97 98 103 106 113 118 122 121 116 110 107 109 104 99 88 67 57 30 353 343 330 325 345 347 338 326 327 331 331 325
82 85 87 92 98 100 96 93 93 90 88 86 88 91 95 102 106 111 117 114 115 111 105 102 107 96 90 77 39 30 21 8 344 343 353 346 330 329 322 318 325 326 324
79 84 89 94 95 96 95 94 92 89 88 87 89 91 93 98 100 107 102 106 109 109 102 101 97 79 63 37 14 4 3 2 351 335 339 336 331 327 321 317 318 314 314
78 85 91 94 95 93 93 94 92 91 91 92 94 95 95 92 99 102 97 103 103 105 105 99 81 72 59 31 24 10 357 348 345 337 333 331 331 332 322 316 313 311 314
76 84 87 92 92 92 92 91 91 92 95 98 98 97 97 97 96 100 105 102 93 94 98 93 79 67 44 26 10 2 353 351 348 345 340 341 334 329 322 314 310 309 312
64 74 80 85 90 91 92 90 86 91 96 99 97 94 96 98 98 101 109 101 92 86 86 86 76 59 37 16 7 3 359 357 343 345 341 335 329 323 315 308 307 307 307
61 67 74 78 82 89 91 89 86 89 94 95 93 92 88 97 100 104 112 109 101 92 82 75 60 42 27 15 8 5 356 350 342 341 339 336 334 328 324 310 308 308 306
60 68 74 75 80 86 89 87 86 85 89 90 88 81 77 79 92 93 96 107 106 88 75 57 44 26 5 5 358 351 345 341 337 333 334 333 331 329 326 317 312 308 305
59 67 71 73 73 75 81 85 84 83 86 85 80 68 67 73 89 85 81 84 86 89 67 43 24 11 359 350 343 338 340 341 332 328 328 333 333 328 329 326 316 306 307
57 62 66 68 71 73 75 75 74 75 74 69 60 63 65 79 82 94 82 78 73 61 22 7 8 3 356 346 340 340 338 339 336 330 330 333 335 335 332 327 321 314 309
54 59 62 64 68 70 73 72 67 68 67 54 44 43 43 82 89 99 83 69 38 8 352 3 2 349 341 340 339 335 332 333 334 331 330 332 332 329 327 326 322 318 312
46 49 58 64 66 67 72 69 64 58 49 40 33 33 47 70 22 1 347 343 341 338 351 354 346 338 333 330 331 331 330 331 333 333 334 332 331 329 325 319 316 310 309
32 39 51 65 64 59 64 64 55 47 40 33 15 358 345 323 330 336 334 338 341 337 335 327 324 329 331 330 328 326 326 328 331 330 330 329 327 326 323 318 313 309 304
Height
5876 5875 5874 5873 5872 5872 5873 5874 5875 5875 5876 5876 5876 5876 5875 5875 5875 5874 5874 5874 5875 5876 5876 5877 5879 5880 5881 5882 5883 5885 5886 5887 5888 5889 5889 5889 5890 5890 5891 5891 5891 5891 5891
5877 5876 5875 5874 5874 5875 5875 5875 5876 5876 5876 5876 5876 5876 5876 5876 5876 5876 5876 5876 5876 5877 5878 5879 5880 5881 5883 5884 5885 5886 5887 5888 5889 5889 5890 5890 5890 5891 5891 5891 5891 5891 5891
5875 5875 5875 5875 5875 5876 5876 5876 5877 5877 5877 5877 5877 5877 5877 5877 5877 5877 5877 5877 5878 5879 5880 5881 5882 5883 5885 5886 5887 5888 5888 5889 5890 5890 5890 5891 5891 5891 5892 5892 5891 5891 5891
5873 5872 5873 5875 5876 5877 5877 5877 5877 5877 5877 5877 5877 5877 5877 5878 5878 5879 5879 5879 5880 5881 5882 5883 5884 5885 5886 5887 5888 5889 5890 5890 5890 5891 5891 5891 5892 5892 5892 5892 5892 5891 5891
5873 5871 5872 5875 5877 5878 5878 5878 5878 5878 5878 5877 5877 5877 5878 5878 5879 5879 5880 5881 5882 5883 5884 5885 5886 5887 5888 5889 5889 5890 5890 5891 5891 5892 5892 5892 5892 5892 5892 5892 5892 5891 5891
5875 5873 5874 5876 5878 5879 5879 5879 5879 5879 5879 5878 5878 5878 5878 5879 5880 5881 5882 5883 5884 5885 5886 5887 5888 5889 5889 5890 5891 5891 5891 5892 5892 5892 5893 5893 5893 5892 5892 5892 5892 5891 5891
5879 5878 5878 5879 5880 5880 5880 5881 5880 5880 5880 5880 5879 5879 5880 5881 5882 5883 5884 5885 5885 5886 5887 5888 5889 5890 5891 5891 5892 5892 5892 5893 5893 5893 5893 5893 5893 5893 5892 5892 5892 5891 5890
5882 5881 5881 5882 5882 5882 5882 5882 5882 5882 5882 5881 5881 5881 5882 5883 5884 5885 5886 5887 5887 5888 5889 5890 5891 5891 5892 5892 5893 5893 5893 5893 5894 5894 5893 5893 5893 5893 5892 5892 5891 5891 5890
5884 5884 5884 5884 5884 5884 5884 5883 5883 5884 5884 5884 5884 5884 5884 5885 5886 5887 5887 5888 5889 5890 5891 5892 5893 5893 5893 5893 5894 5894 5894 5894 5894 5894 5894 5893 5893 5892 5892 5892 5891 5890 5889
5885 5885 5886 5886 5886 5885 5885 5885 5885 5885 5886 5886 5886 5886 5886 5887 5887 5888 5889 5889 5890 5891 5892 5893 5894 5894 5894 5894 5894 5895 5895 5895 5894 5894 5894 5894 5893 5893 5892 5892 5891 5890 5889
5887 5887 5887 5887 5887 5887 5887 5887 5887 5887 5887 5887 5887 5888 5888 5888 5889 5889 5890 5891 5892 5893 5893 5894 5895 5896 5896 5895 5895 5895 5895 5895 5895 5894 5894 5894 5893 5893 5892 5891 5891 5890 5889
5889 5888 5889 5889 5889 5889 5889 5889 5890 5889 5889 5889 5889 5890 5890 5890 5890 5891 5891 5892 5893 5894 5895 5895 5896 5896 5897 5896 5896 5896 5896 5895 5894 5894 5894 5893 5893 5892 5892 5891 5891 5890 5889
5890 5890 5890 5891 5891 5891 5891 5891 5891 5891 5891 5891 5891 5891 5892 5892 5892 5893 5893 5893 5894 5895 5896 5896 5897 5897 5897 5897 5897 5897 5896 5895 5895 5895 5894 5893 5892 5892 5892 5891 5890 5889 5888
5892 5892 5892 5892 5892 5893 5893 5893 5893 5893 5893 5893 5893 5893 5893 5894 5894 5894 5895 5895 5896 5896 5897 5897 5897 5897 5898 5898 5897 5897 5896 5896 5895 5894 5894 5893 5892 5892 5891 5890 5889 5888 5887
5893 5893 5893 5894 5894 5894 5894 5894 5894 5894 5895 5895 5895 5895 5895 5895 5895 5896 5896 5897 5897 5897 5897 5897 5898 5898 5898 5898 5898 5897 5896 5896 5895 5894 5893 5892 5892 5891 5890 5890 5889 5888 5886
5895 5895 5895 5895 5895 5895 5896 5896 5896 5896 5896 5896 5896 5896 5896 5896 5896 5897 5897 5898 5898 5898 5898 5898 5898 5898 5898 5898 5897 5897 5896 5895 5894 5893 5893 5892 5891 5890 5890 5889 5888 5886 5885
5896 5896 5896 5896 5896 5897 5897 5897 5897 5897 5898 5898 5898 5897 5897 5897 5898 5898 5898 5899 5899 5899 5899 5898 5898 5898 5898 5897 5897 5896 5895 5895 5894 5893 5892 5891 5891 5890 5888 5887 5886 5885 5884
5897 5897 5897 5897 5898 5898 5898 5898 5898 5899 5899 5899 5899 5899 5898 5899 5899 5899 5899 5899 5899 5899 5899 5899 5899 5898 5898 5897 5897 5896 5895 5894 5894 5893 5892 5891 5890 5888 5887 5886 5884 5883 5882
5899 5899 5899 5899 5899 5899 5899 5899 5900 5900 5900 5900 5900 5900 5899 5899 5900 5900 5900 5900 5900 5900 5900 5899 5899 5898 5898 5897 5896 5896 5895 5894 5893 5892 5891 5890 5888 5887 5886 5884 5883 5881 5880
5901 5901 5900 5900 5900 5900 5900 5901 5901 5901 5901 5901 5901 5900 5900 5900 5900 5900 5900 5900 5900 5900 5900 5900 5899 5898 5898 5897 5896 5896 5895 5894 5892 5891 5890 5889 5887 5886 5884 5883 5881 5880 5878
5903 5902 5902 5902 5901 5901 5901 5902 5902 5902 5901 5901 5901 5901 5901 5900 5900 5900 5900 5900 5900 5900 5900 5899 5899 5898 5898 5897 5896 5895 5894 5893 5892 5891 5889 5888 5886 5885 5883 5881 5880 5878 5876
5904 5904 5903 5903 5903 5903 5903 5903 5903 5902 5902 5902 5902 5901 5901 5901 5901 5901 5900 5900 5900 5900 5900 5899 5898 5898 5897 5896 5896 5895 5894 5893 5891 5890 5889 5887 5885 5883 5881 5880 5878 5876 5875
5906 5905 5905 5904 5904 5904 5904 5904 5903 5903 5903 5903 5902 5902 5901 5901 5901 5900 5900 5900 5899 5899 5899 5899 5898 5897 5897 5896 5895 5894 5893 5892 5891 5889 5887 5886 5884 5882 5880 5878 5876 5874 5872
5907 5906 5905 5905 5905 5905 5904 5904 5904 5903 5903 5903 5902 5902 5901 5901 5900 5900 5900 5899 5899 5898 5898 5898 5897 5896 5896 5895 5894 5893 5892 5891 5890 5888 5886 5884 5882 5880 5878 5876 5874 5872 5870
5907 5906 5906 5906 5905 5905 5905 5904 5904 5903 5903 5903 5902 5902 5901 5900 5900 5900 5899 5899 5898 5898 5897 5897 5896 5895 5894 5893 5892 5891 5890 5889 5888 5886 5885 5883 5880 5878 5876 5873 5871 5869 5867
5907 5906 5906 5906 5905 5905 5904 5904 5904 5903 5903 5902 5902 5901 5901 5900 5900 5899 5898 5898 5897 5897 5896 5895 5895 5894 5893 5892 5890 5889 5888 5886 5885 5884 5882 5880 5878 5876 5874 5871 5868 5866 5865